This is the latest recevied weather packets stored in our database for station/object KT2UU-13. If no packets are shown the sender has not sent any weather packets the latest 10 day(s).
| Time | Temp. | Humidity | Pressure | Rain* | Wind** | Luminosity | Snow |
|---|---|---|---|---|---|---|---|
| 1777563011 | 17.22° C | 72% | 1014.4 hPa | 0 mm | - | - | - |
| 1777562707 | 17.22° C | 74% | 1014.3 hPa | 0 mm | - | - | - |
| 1777562406 | 17.22° C | 73% | 1014.3 hPa | 0 mm | - | - | - |
| 1777562102 | 17.22° C | 76% | 1014.3 hPa | 0 mm | - | - | - |
| 1777561800 | 16.67° C | 76% | 1014.2 hPa | 0 mm | - | - | - |
| 1777561495 | 16.67° C | 77% | 1014.3 hPa | 0 mm | - | - | - |
| 1777561191 | 16.67° C | 76% | 1014.2 hPa | 0 mm | - | - | - |
| 1777560885 | 16.67° C | 78% | 1014.1 hPa | 0 mm | - | - | - |
| 1777560583 | 16.11° C | 77% | 1014 hPa | 0 mm | - | - | - |
| 1777560281 | 16.11° C | 77% | 1014 hPa | 0 mm | - | - | - |
| 1777559978 | 16.11° C | 77% | 1013.9 hPa | 0 mm | - | - | - |
| 1777559673 | 16.11° C | 79% | 1014.1 hPa | 0 mm | - | - | - |
| 1777559371 | 16.11° C | 78% | 1014 hPa | 0 mm | - | - | - |
| 1777559067 | 15.56° C | 78% | 1013.9 hPa | 0 mm | - | - | - |
| 1777558762 | 15.56° C | 79% | 1013.9 hPa | 0 mm | - | - | - |
| 1777558458 | 15.56° C | 80% | 1014 hPa | 0 mm | - | - | - |
| 1777558155 | 15.56° C | 78% | 1013.9 hPa | 0 mm | - | - | - |
| 1777557851 | 15.56° C | 80% | 1013.9 hPa | 0 mm | - | - | - |
| 1777557548 | 15.56° C | 80% | 1013.8 hPa | 0 mm | - | - | - |
| 1777557244 | 15° C | 81% | 1013.6 hPa | 0 mm | - | - | - |
| 1777556940 | 15° C | 81% | 1013.7 hPa | 0 mm | - | - | - |
| 1777556635 | 15° C | 82% | 1014 hPa | 0 mm | - | - | - |
| 1777556330 | 15° C | 82% | 1013.9 hPa | 0 mm | - | - | - |
| 1777556027 | 15° C | 82% | 1013.6 hPa | 0 mm | - | - | - |
| 1777555722 | 15° C | 82% | 1013.6 hPa | 0 mm | - | - | - |
* Rain latest hour (hover to see other rain measurements)
** Current wind speed in m/s (hover to see current wind gust speed)